| time (UTC) | temp F | wind direction | speed MPH | gust MPH | rain 1hr in | rain 24hr in | rain mn in | humidity % | barometer mb |
| 20260506062027 | 31 | 0 | 0.0 | 0.0 | 0.00 | 0.00 | 0.00 | 72 | 1018.9 |
| 20260506061541 | 32 | 0 | 0.0 | 0.0 | 0.00 | 0.00 | 0.00 | 71 | 1019.1 |
| 20260506061024 | 32 | 0 | 0.0 | 0.0 | 0.00 | 0.00 | 0.00 | 71 | 1018.9 |
| 20260506060528 | 33 | 0 | 0.0 | 0.0 | 0.00 | 0.00 | 0.00 | 71 | 1018.8 |
| 20260506051027 | 36 | 0 | 0.0 | 0.0 | 0.00 | 0.00 | 0.00 | 54 | 1018.5 |
| 20260506050528 | 36 | 0 | 0.0 | 0.0 | 0.00 | 0.00 | 0.00 | 53 | 1018.5 |
| 20260506045027 | 37 | 0 | 0.0 | 3.0 | 0.00 | 0.00 | 0.00 | 52 | 1018.5 |
| 20260506044539 | 37 | 0 | 0.0 | 5.0 | 0.00 | 0.00 | 0.00 | 51 | 1018.5 |
| 20260506044029 | 38 | 27 | 1.0 | 5.0 | 0.00 | 0.00 | 0.00 | 50 | 1018.7 |
| 20260506043526 | 38 | 24 | 1.0 | 5.0 | 0.00 | 0.00 | 0.00 | 50 | 1018.5 |
| 20260506043036 | 38 | 349 | 1.0 | 3.0 | 0.00 | 0.00 | 0.00 | 51 | 1018.5 |
| 20260506042526 | 38 | 0 | 1.0 | 5.0 | 0.00 | 0.00 | 0.00 | 51 | 1018.5 |
| 20260506042026 | 38 | 17 | 1.0 | 5.0 | 0.00 | 0.00 | 0.00 | 49 | 1018.5 |
| 20260506041539 | 38 | 7 | 2.0 | 6.0 | 0.00 | 0.00 | 0.00 | 49 | 1018.4 |
| 20260506041027 | 38 | 12 | 2.0 | 6.0 | 0.00 | 0.00 | 0.00 | 49 | 1018.4 |
| 20260506040526 | 38 | 47 | 2.0 | 4.0 | 0.00 | 0.00 | 0.00 | 50 | 1018.3 |
| 20260506040038 | 38 | 41 | 2.0 | 7.0 | 0.00 | 0.00 | 0.00 | 51 | 1018.2 |
| 20260506035551 | 38 | 25 | 2.0 | 7.0 | 0.00 | 0.00 | 0.00 | 51 | 1018.3 |
| 20260506035026 | 38 | 39 | 2.0 | 5.0 | 0.00 | 0.00 | 0.00 | 51 | 1018.2 |
| 20260506034537 | 38 | 37 | 2.0 | 6.0 | 0.00 | 0.00 | 0.00 | 50 | 1018.4 |
| 20260506034027 | 38 | 30 | 2.0 | 6.0 | 0.00 | 0.00 | 0.00 | 50 | 1018.2 |
| 20260506033528 | 38 | 23 | 3.0 | 6.0 | 0.00 | 0.00 | 0.00 | 49 | 1018.2 |
| 20260506033039 | 38 | 23 | 3.0 | 8.0 | 0.00 | 0.00 | 0.00 | 50 | 1018.1 |
| 20260506032524 | 39 | 39 | 3.0 | 8.0 | 0.00 | 0.00 | 0.00 | 48 | 1018.0 |
| 20260506032024 | 39 | 27 | 4.0 | 8.0 | 0.00 | 0.00 | 0.00 | 48 | 1018.1 |
| 20260506031539 | 39 | 359 | 3.0 | 7.0 | 0.00 | 0.00 | 0.00 | 48 | 1017.9 |
| 20260506031028 | 39 | 359 | 3.0 | 7.0 | 0.00 | 0.00 | 0.00 | 48 | 1017.9 |
| 20260506030526 | 39 | 23 | 4.0 | 7.0 | 0.00 | 0.00 | 0.00 | 48 | 1017.8 |
| 20260506030037 | 39 | 30 | 4.0 | 7.0 | 0.00 | 0.00 | 0.00 | 48 | 1017.7 |
| 20260506025529 | 39 | 30 | 3.0 | 10.0 | 0.00 | 0.00 | 0.00 | 48 | 1017.7 |
| 20260506025026 | 39 | 359 | 4.0 | 10.0 | 0.00 | 0.00 | 0.00 | 47 | 1017.5 |
| 20260506024545 | 39 | 50 | 2.0 | 5.0 | 0.00 | 0.00 | 0.00 | 48 | 1017.5 |
| 20260506024026 | 39 | 6 | 2.0 | 5.0 | 0.00 | 0.00 | 0.00 | 47 | 1017.3 |
| 20260506023526 | 40 | 15 | 2.0 | 9.0 | 0.00 | 0.00 | 0.00 | 47 | 1017.1 |
| 20260506023041 | 40 | 49 | 1.0 | 9.0 | 0.00 | 0.00 | 0.00 | 47 | 1017.1 |
| 20260506022530 | 40 | 23 | 3.0 | 9.0 | 0.00 | 0.00 | 0.00 | 46 | 1017.0 |
| 20260506022027 | 40 | 359 | 3.0 | 9.0 | 0.00 | 0.00 | 0.00 | 46 | 1016.8 |
| 20260506021538 | 41 | 1 | 4.0 | 11.0 | 0.00 | 0.00 | 0.00 | 45 | 1016.7 |
| 20260506021025 | 41 | 11 | 5.0 | 11.0 | 0.00 | 0.00 | 0.00 | 45 | 1016.7 |
| 20260506020526 | 41 | 13 | 5.0 | 12.0 | 0.00 | 0.00 | 0.00 | 45 | 1016.6 |
| 20260506020040 | 41 | 15 | 5.0 | 14.0 | 0.00 | 0.00 | 0.00 | 45 | 1016.4 |
| 20260506015526 | 42 | 11 | 5.0 | 14.0 | 0.00 | 0.00 | 0.00 | 44 | 1016.4 |
| 20260506015029 | 42 | 354 | 6.0 | 14.0 | 0.00 | 0.00 | 0.00 | 44 | 1016.3 |
| 20260506014537 | 42 | 1 | 5.0 | 15.0 | 0.00 | 0.00 | 0.00 | 44 | 1016.3 |
| 20260506014026 | 42 | 360 | 5.0 | 15.0 | 0.00 | 0.00 | 0.00 | 45 | 1016.2 |
| 20260506013526 | 42 | 349 | 5.0 | 15.0 | 0.00 | 0.00 | 0.00 | 44 | 1016.1 |
| 20260506013038 | 43 | 77 | 5.0 | 16.0 | 0.00 | 0.00 | 0.00 | 46 | 1016.1 |
| 20260506012524 | 43 | 37 | 5.0 | 16.0 | 0.00 | 0.00 | 0.00 | 46 | 1016.0 |
| 20260506012026 | 43 | 49 | 7.0 | 14.0 | 0.00 | 0.00 | 0.00 | 45 | 1016.0 |
| 20260506011602 | 43 | 41 | 6.0 | 14.0 | 0.00 | 0.00 | 0.00 | 45 | 1016.0 |
| 20260506011026 | 43 | 25 | 7.0 | 16.0 | 0.00 | 0.00 | 0.00 | 45 | 1015.8 |
| 20260506010526 | 44 | 22 | 8.0 | 16.0 | 0.00 | 0.00 | 0.00 | 46 | 1015.7 |
| 20260506010037 | 44 | 44 | 7.0 | 14.0 | 0.00 | 0.00 | 0.00 | 46 | 1015.7 |
| 20260506005525 | 44 | 13 | 8.0 | 14.0 | 0.00 | 0.00 | 0.00 | 46 | 1015.6 |
| 20260506005025 | 44 | 13 | 6.0 | 14.0 | 0.00 | 0.00 | 0.00 | 45 | 1015.5 |
| 20260506004552 | 44 | 33 | 8.0 | 15.0 | 0.00 | 0.00 | 0.00 | 46 | 1015.5 |
| 20260506004026 | 44 | 27 | 7.0 | 16.0 | 0.00 | 0.00 | 0.00 | 48 | 1015.5 |
| 20260506003524 | 44 | 63 | 11.0 | 16.0 | 0.00 | 0.00 | 0.00 | 47 | 1015.5 |
| 20260506003036 | 44 | 1 | 8.0 | 14.0 | 0.00 | 0.00 | 0.00 | 48 | 1015.5 |
| 20260506002524 | 43 | 6 | 9.0 | 15.0 | 0.00 | 0.00 | 0.00 | 49 | 1015.5 |
| 20260506002024 | 43 | 32 | 8.0 | 15.0 | 0.00 | 0.00 | 0.00 | 49 | 1015.4 |
| 20260506001544 | 43 | 30 | 9.0 | 15.0 | 0.00 | 0.00 | 0.00 | 49 | 1015.5 |
| 20260506001027 | 43 | 50 | 10.0 | 15.0 | 0.00 | 0.00 | 0.00 | 49 | 1015.5 |
| 20260506000527 | 43 | 56 | 8.0 | 17.0 | 0.00 | 0.00 | 0.00 | 50 | 1015.3 |
| 20260506000108 | 43 | 66 | 9.0 | 17.0 | 0.00 | 0.00 | 0.00 | 50 | 1015.4 |
| 20260505235527 | 43 | 22 | 8.0 | 14.0 | 0.00 | 0.00 | 0.00 | 50 | 1015.4 |
| 20260505235027 | 43 | 45 | 8.0 | 13.0 | 0.00 | 0.00 | 0.00 | 52 | 1015.2 |
| 20260505234544 | 43 | 51 | 6.0 | 13.0 | 0.00 | 0.00 | 0.00 | 53 | 1015.1 |
| 20260505234027 | 43 | 53 | 5.0 | 19.0 | 0.00 | 0.00 | 0.00 | 53 | 1015.2 |
| 20260505233528 | 43 | 5 | 9.0 | 19.0 | 0.00 | 0.00 | 0.00 | 52 | 1015.3 |
| 20260505233037 | 43 | 53 | 12.0 | 19.0 | 0.00 | 0.00 | 0.00 | 51 | 1015.0 |
| 20260505232526 | 43 | 44 | 10.0 | 18.0 | 0.00 | 0.00 | 0.00 | 51 | 1015.1 |
| 20260505232024 | 44 | 41 | 8.0 | 20.0 | 0.00 | 0.00 | 0.00 | 49 | 1015.0 |
| 20260505231537 | 44 | 27 | 12.0 | 20.0 | 0.00 | 0.00 | 0.00 | 51 | 1014.7 |
| 20260505231024 | 43 | 20 | 10.0 | 19.0 | 0.00 | 0.00 | 0.00 | 53 | 1014.7 |
| 20260505230524 | 43 | 8 | 11.0 | 18.0 | 0.00 | 0.00 | 0.00 | 52 | 1014.6 |
| 20260505230058 | 43 | 75 | 10.0 | 19.0 | 0.00 | 0.00 | 0.00 | 52 | 1014.8 |
| 20260505225528 | 43 | 27 | 8.0 | 21.0 | 0.00 | 0.00 | 0.00 | 52 | 1014.9 |
| 20260505225024 | 43 | 354 | 12.0 | 21.0 | 0.00 | 0.00 | 0.00 | 51 | 1014.8 |
| 20260505224541 | 43 | 29 | 12.0 | 21.0 | 0.00 | 0.00 | 0.00 | 52 | 1014.8 |
| 20260505224023 | 43 | 20 | 12.0 | 21.0 | 0.00 | 0.00 | 0.00 | 52 | 1014.8 |
| 20260505223525 | 43 | 41 | 13.0 | 21.0 | 0.00 | 0.00 | 0.00 | 52 | 1014.6 |
| 20260505223039 | 44 | 39 | 9.0 | 21.0 | 0.00 | 0.00 | 0.00 | 49 | 1014.6 |
| 20260505222526 | 45 | 34 | 12.0 | 21.0 | 0.00 | 0.00 | 0.00 | 45 | 1014.5 |
| 20260505222025 | 47 | 53 | 8.0 | 20.0 | 0.00 | 0.00 | 0.00 | 42 | 1014.4 |
| 20260505221536 | 48 | 21 | 9.0 | 21.0 | 0.00 | 0.00 | 0.00 | 43 | 1014.3 |
| 20260505221024 | 46 | 49 | 6.0 | 21.0 | 0.00 | 0.00 | 0.00 | 45 | 1014.4 |
| 20260505220523 | 46 | 43 | 10.0 | 24.0 | 0.00 | 0.00 | 0.00 | 47 | 1014.2 |
| 20260505220039 | 45 | 30 | 8.0 | 24.0 | 0.00 | 0.00 | 0.00 | 47 | 1014.2 |
| 20260505215523 | 46 | 32 | 12.0 | 22.0 | 0.00 | 0.00 | 0.00 | 47 | 1014.2 |
| 20260505215023 | 46 | 53 | 9.0 | 23.0 | 0.00 | 0.00 | 0.00 | 49 | 1014.2 |
| 20260505214542 | 45 | 41 | 14.0 | 23.0 | 0.00 | 0.00 | 0.00 | 52 | 1014.3 |
| 20260505214024 | 46 | 14 | 13.0 | 22.0 | 0.00 | 0.00 | 0.00 | 49 | 1014.2 |
| 20260505213525 | 46 | 14 | 14.0 | 22.0 | 0.00 | 0.00 | 0.00 | 47 | 1014.3 |
| 20260505213039 | 47 | 46 | 10.0 | 16.0 | 0.00 | 0.00 | 0.00 | 48 | 1014.5 |
| 20260505212524 | 48 | 9 | 7.0 | 14.0 | 0.00 | 0.00 | 0.00 | 34 | 1014.4 |
| 20260505212023 | 48 | 322 | 5.0 | 16.0 | 0.00 | 0.00 | 0.00 | 45 | 1014.5 |
| 20260505211540 | 47 | 14 | 8.0 | 16.0 | 0.00 | 0.00 | 0.00 | 45 | 1014.3 |
| 20260505211022 | 48 | 49 | 8.0 | 15.0 | 0.00 | 0.00 | 0.00 | 43 | 1014.4 |
| 20260505210528 | 47 | 32 | 8.0 | 14.0 | 0.00 | 0.00 | 0.00 | 42 | 1014.4 |
| 20260505210042 | 48 | 66 | 4.0 | 12.0 | 0.00 | 0.00 | 0.00 | 43 | 1014.5 |
| 20260505205525 | 49 | 331 | 7.0 | 12.0 | 0.00 | 0.00 | 0.00 | 45 | 1014.6 |
| 20260505205028 | 49 | 359 | 6.0 | 11.0 | 0.00 | 0.00 | 0.00 | 34 | 1014.6 |
| 20260505204545 | 49 | 354 | 5.0 | 13.0 | 0.00 | 0.00 | 0.00 | 38 | 1014.5 |
| 20260505204023 | 47 | 356 | 5.0 | 20.0 | 0.00 | 0.00 | 0.00 | 43 | 1014.6 |
| 20260505203525 | 45 | 5 | 12.0 | 20.0 | 0.00 | 0.00 | 0.00 | 51 | 1014.9 |
| 20260505203052 | 45 | 6 | 9.0 | 18.0 | 0.00 | 0.00 | 0.00 | 53 | 1014.8 |
| 20260505202523 | 45 | 61 | 8.0 | 22.0 | 0.00 | 0.00 | 0.00 | 57 | 1014.8 |
| 20260505202023 | 43 | 28 | 11.0 | 22.0 | 0.00 | 0.00 | 0.00 | 56 | 1014.9 |
| 20260505201541 | 44 | 54 | 13.0 | 21.0 | 0.00 | 0.00 | 0.00 | 56 | 1015.0 |
| 20260505201024 | 45 | 65 | 13.0 | 21.0 | 0.00 | 0.00 | 0.00 | 55 | 1015.0 |
| 20260505200524 | 47 | 43 | 9.0 | 20.0 | 0.00 | 0.00 | 0.00 | 52 | 1015.0 |
| 20260505200038 | 49 | 338 | 9.0 | 17.0 | 0.00 | 0.00 | 0.00 | 42 | 1015.0 |
| 20260505195522 | 48 | 359 | 9.0 | 18.0 | 0.00 | 0.00 | 0.00 | 45 | 1014.9 |
| 20260505195022 | 47 | 321 | 7.0 | 20.0 | 0.00 | 0.00 | 0.00 | 46 | 1015.1 |
| 20260505194550 | 47 | 354 | 10.0 | 20.0 | 0.00 | 0.00 | 0.00 | 43 | 1014.9 |
| 20260505194026 | 47 | 342 | 10.0 | 18.0 | 0.00 | 0.00 | 0.00 | 46 | 1014.9 |
| 20260505193523 | 48 | 360 | 7.0 | 16.0 | 0.00 | 0.00 | 0.00 | 46 | 1014.9 |
| 20260505193038 | 48 | 319 | 6.0 | 15.0 | 0.00 | 0.00 | 0.00 | 45 | 1014.8 |
| 20260505192526 | 47 | 337 | 5.0 | 14.0 | 0.00 | 0.00 | 0.00 | 47 | 1015.0 |
| 20260505192024 | 47 | 341 | 8.0 | 17.0 | 0.00 | 0.00 | 0.00 | 46 | 1015.1 |
| 20260505191553 | 47 | 328 | 9.0 | 17.0 | 0.00 | 0.00 | 0.00 | 46 | 1015.0 |
| 20260505191025 | 48 | 345 | 9.0 | 17.0 | 0.00 | 0.00 | 0.00 | 44 | 1015.2 |
| 20260505190527 | 48 | 324 | 8.0 | 17.0 | 0.00 | 0.00 | 0.00 | 46 | 1015.1 |
| 20260505190041 | 48 | 347 | 8.0 | 17.0 | 0.00 | 0.00 | 0.00 | 43 | 1015.1 |
| 20260505185523 | 48 | 357 | 8.0 | 21.0 | 0.00 | 0.00 | 0.00 | 42 | 1015.2 |
| 20260505185025 | 48 | 342 | 9.0 | 21.0 | 0.00 | 0.00 | 0.00 | 41 | 1015.2 |
| 20260505184538 | 48 | 355 | 9.0 | 16.0 | 0.00 | 0.00 | 0.00 | 42 | 1015.1 |
| 20260505184025 | 48 | 332 | 5.0 | 16.0 | 0.00 | 0.00 | 0.00 | 43 | 1015.1 |
| 20260505183526 | 48 | 288 | 6.0 | 14.0 | 0.00 | 0.00 | 0.00 | 43 | 1015.2 |
| 20260505183043 | 47 | 323 | 8.0 | 14.0 | 0.00 | 0.00 | 0.00 | 44 | 1015.3 |
| 20260505182523 | 47 | 292 | 5.0 | 15.0 | 0.00 | 0.00 | 0.00 | 44 | 1015.3 |
| 20260505182024 | 47 | 332 | 5.0 | 15.0 | 0.00 | 0.00 | 0.00 | 44 | 1015.4 |
| 20260505181538 | 46 | 283 | 7.0 | 15.0 | 0.00 | 0.00 | 0.00 | 44 | 1015.4 |
| 20260505181025 | 47 | 322 | 6.0 | 15.0 | 0.00 | 0.00 | 0.00 | 44 | 1015.4 |
| 20260505180523 | 47 | 356 | 8.0 | 19.0 | 0.00 | 0.00 | 0.00 | 44 | 1015.4 |
| 20260505180047 | 47 | 290 | 6.0 | 19.0 | 0.00 | 0.00 | 0.00 | 46 | 1015.3 |
| 20260505175526 | 46 | 308 | 6.0 | 19.0 | 0.00 | 0.00 | 0.00 | 44 | 1015.4 |
| 20260505175026 | 46 | 330 | 6.0 | 14.0 | 0.00 | 0.00 | 0.00 | 45 | 1015.6 |
| 20260505174540 | 46 | 353 | 5.0 | 14.0 | 0.00 | 0.00 | 0.00 | 46 | 1015.6 |
| 20260505174022 | 46 | 347 | 6.0 | 13.0 | 0.00 | 0.00 | 0.00 | 45 | 1015.6 |
| 20260505173526 | 47 | 334 | 5.0 | 14.0 | 0.00 | 0.00 | 0.00 | 47 | 1015.7 |
| 20260505173036 | 46 | 340 | 6.0 | 14.0 | 0.00 | 0.00 | 0.00 | 48 | 1015.7 |
| 20260505172522 | 45 | 339 | 6.0 | 14.0 | 0.00 | 0.00 | 0.00 | 51 | 1015.7 |
| 20260505172022 | 43 | 306 | 5.0 | 17.0 | 0.00 | 0.00 | 0.00 | 50 | 1015.7 |
| 20260505171538 | 43 | 360 | 9.0 | 17.0 | 0.00 | 0.00 | 0.00 | 49 | 1015.8 |
| 20260505171024 | 44 | 343 | 6.0 | 15.0 | 0.00 | 0.00 | 0.00 | 48 | 1015.9 |
| 20260505170525 | 44 | 343 | 6.0 | 15.0 | 0.00 | 0.00 | 0.00 | 46 | 1015.7 |
| 20260505170037 | 44 | 345 | 7.0 | 15.0 | 0.00 | 0.00 | 0.00 | 44 | 1015.8 |
| 20260505165523 | 45 | 335 | 5.0 | 14.0 | 0.00 | 0.00 | 0.00 | 44 | 1015.8 |
| 20260505165023 | 45 | 357 | 7.0 | 14.0 | 0.00 | 0.00 | 0.00 | 43 | 1015.9 |
| 20260505164536 | 45 | 359 | 6.0 | 12.0 | 0.00 | 0.00 | 0.00 | 43 | 1016.0 |
| 20260505164024 | 45 | 352 | 5.0 | 12.0 | 0.00 | 0.00 | 0.00 | 44 | 1016.0 |
| 20260505163523 | 45 | 356 | 7.0 | 12.0 | 0.00 | 0.00 | 0.00 | 43 | 1016.0 |
| 20260505163037 | 44 | 321 | 5.0 | 17.0 | 0.00 | 0.00 | 0.00 | 42 | 1015.8 |
| 20260505162524 | 45 | 352 | 5.0 | 17.0 | 0.00 | 0.00 | 0.00 | 41 | 1015.9 |
| 20260505162023 | 46 | 351 | 6.0 | 16.0 | 0.00 | 0.00 | 0.00 | 43 | 1015.8 |
| 20260505161537 | 45 | 302 | 6.0 | 14.0 | 0.00 | 0.00 | 0.00 | 42 | 1016.0 |
| 20260505161023 | 45 | 321 | 5.0 | 12.0 | 0.00 | 0.00 | 0.00 | 42 | 1015.9 |
| 20260505160524 | 46 | 357 | 6.0 | 12.0 | 0.00 | 0.00 | 0.00 | 41 | 1015.8 |
| 20260505153036 | 45 | 35 | 2.0 | 6.0 | 0.00 | 0.00 | 0.00 | 43 | 1016.0 |
| 20260505152524 | 45 | 338 | 1.0 | 5.0 | 0.00 | 0.00 | 0.00 | 44 | 1016.1 |
| 20260505152026 | 44 | 34 | 1.0 | 4.0 | 0.00 | 0.00 | 0.00 | 48 | 1016.2 |
| 20260505151540 | 43 | 256 | 1.0 | 4.0 | 0.00 | 0.00 | 0.00 | 48 | 1016.2 |
| 20260505151026 | 43 | 127 | 1.0 | 4.0 | 0.00 | 0.00 | 0.00 | 51 | 1016.2 |
| 20260505150523 | 42 | 175 | 1.0 | 4.0 | 0.00 | 0.00 | 0.00 | 50 | 1016.2 |
| 20260505140525 | 39 | 236 | 2.0 | 4.0 | 0.00 | 0.00 | 0.00 | 60 | 1016.6 |
| 20260505125023 | 34 | 257 | 1.0 | 3.0 | 0.00 | 0.00 | 0.00 | 70 | 1015.8 |
| 20260505124550 | 33 | 198 | 1.0 | 3.0 | 0.00 | 0.00 | 0.00 | 71 | 1015.8 |
| 20260505124025 | 33 | 193 | 0.0 | 3.0 | 0.00 | 0.00 | 0.00 | 71 | 1015.8 |
| 20260505123523 | 33 | 0 | 0.0 | 3.0 | 0.00 | 0.00 | 0.00 | 71 | 1015.8 |
| 20260505123049 | 33 | 274 | 1.0 | 3.0 | 0.00 | 0.00 | 0.00 | 70 | 1015.7 |
| 20260505122523 | 33 | 0 | 0.0 | 2.0 | 0.00 | 0.00 | 0.00 | 70 | 1015.6 |
| 20260505122031 | 33 | 0 | 0.0 | 2.0 | 0.00 | 0.00 | 0.00 | 70 | 1015.5 |
| 20260505121607 | 33 | 0 | 0.0 | 2.0 | 0.00 | 0.00 | 0.00 | 69 | 1015.5 |
| 20260505121023 | 33 | 0 | 0.0 | 2.0 | 0.00 | 0.00 | 0.00 | 70 | 1015.4 |
| 20260505120522 | 33 | 274 | 1.0 | 2.0 | 0.00 | 0.00 | 0.00 | 69 | 1015.5 |
| 20260505120037 | 34 | 273 | 1.0 | 2.0 | 0.00 | 0.00 | 0.00 | 68 | 1015.4 |
| 20260505115522 | 34 | 0 | 0.0 | 2.0 | 0.00 | 0.00 | 0.00 | 68 | 1015.4 |
| 20260505115022 | 34 | 0 | 0.0 | 2.0 | 0.00 | 0.00 | 0.00 | 67 | 1015.4 |
| 20260505114536 | 34 | 0 | 1.0 | 2.0 | 0.00 | 0.00 | 0.00 | 66 | 1015.4 |
| 20260505114023 | 34 | 131 | 0.0 | 3.0 | 0.00 | 0.00 | 0.00 | 65 | 1015.3 |
| 20260505113522 | 35 | 0 | 0.0 | 4.0 | 0.00 | 0.00 | 0.00 | 65 | 1015.2 |
| 20260505113046 | 35 | 131 | 1.0 | 4.0 | 0.00 | 0.00 | 0.00 | 65 | 1015.2 |
| 20260505112530 | 35 | 89 | 1.0 | 2.0 | 0.00 | 0.00 | 0.00 | 65 | 1015.2 |
| 20260505112024 | 35 | 89 | 0.0 | 4.0 | 0.00 | 0.00 | 0.00 | 64 | 1015.1 |
| 20260505111540 | 36 | 0 | 0.0 | 4.0 | 0.00 | 0.00 | 0.00 | 63 | 1015.2 |
| 20260505111025 | 36 | 112 | 1.0 | 4.0 | 0.00 | 0.00 | 0.00 | 63 | 1015.2 |
| 20260505110526 | 36 | 112 | 2.0 | 4.0 | 0.00 | 0.00 | 0.00 | 62 | 1015.2 |
| 20260505102022 | 38 | 96 | 1.0 | 4.0 | 0.00 | 0.00 | 0.00 | 56 | 1015.0 |
| 20260505101544 | 39 | 0 | 0.0 | 4.0 | 0.00 | 0.00 | 0.00 | 55 | 1015.1 |
| 20260505101022 | 40 | 0 | 0.0 | 4.0 | 0.00 | 0.00 | 0.00 | 54 | 1015.0 |
| 20260505100524 | 40 | 0 | 0.0 | 7.0 | 0.00 | 0.00 | 0.00 | 54 | 1015.0 |
| 20260505100048 | 40 | 0 | 1.0 | 7.0 | 0.00 | 0.00 | 0.00 | 53 | 1014.9 |
| 20260505095526 | 41 | 321 | 3.0 | 7.0 | 0.00 | 0.00 | 0.00 | 53 | 1015.0 |
| 20260505095025 | 41 | 326 | 3.0 | 6.0 | 0.00 | 0.00 | 0.00 | 53 | 1015.0 |
| 20260505094542 | 41 | 293 | 3.0 | 7.0 | 0.00 | 0.00 | 0.00 | 52 | 1015.0 |
| 20260505094023 | 41 | 326 | 3.0 | 7.0 | 0.00 | 0.00 | 0.00 | 52 | 1015.0 |
| 20260505093523 | 41 | 332 | 3.0 | 5.0 | 0.00 | 0.00 | 0.00 | 53 | 1015.0 |
| 20260505093038 | 41 | 303 | 1.0 | 3.0 | 0.00 | 0.00 | 0.00 | 54 | 1015.1 |
| 20260505092523 | 42 | 323 | 1.0 | 3.0 | 0.00 | 0.00 | 0.00 | 53 | 1015.0 |
| 20260505092022 | 42 | 323 | 1.0 | 3.0 | 0.00 | 0.00 | 0.00 | 53 | 1015.0 |
| 20260505091549 | 42 | 0 | 1.0 | 5.0 | 0.00 | 0.00 | 0.00 | 52 | 1015.0 |
| 20260505091025 | 43 | 332 | 2.0 | 6.0 | 0.00 | 0.00 | 0.00 | 51 | 1015.0 |
| 20260505090522 | 43 | 339 | 2.0 | 6.0 | 0.00 | 0.00 | 0.00 | 51 | 1015.0 |
| 20260505090055 | 43 | 307 | 2.0 | 5.0 | 0.00 | 0.00 | 0.00 | 50 | 1014.9 |
| 20260505085522 | 43 | 305 | 2.0 | 5.0 | 0.00 | 0.00 | 0.00 | 50 | 1015.0 |
| 20260505085026 | 44 | 311 | 2.0 | 5.0 | 0.00 | 0.00 | 0.00 | 50 | 1014.9 |
| 20260505084538 | 44 | 327 | 2.0 | 5.0 | 0.00 | 0.00 | 0.00 | 50 | 1014.9 |
| 20260505084024 | 44 | 337 | 2.0 | 5.0 | 0.00 | 0.00 | 0.00 | 50 | 1015.0 |
| 20260505083525 | 44 | 340 | 3.0 | 6.0 | 0.00 | 0.00 | 0.00 | 49 | 1015.1 |
| 20260505083047 | 44 | 314 | 2.0 | 8.0 | 0.00 | 0.00 | 0.00 | 49 | 1015.1 |
| 20260505082527 | 45 | 323 | 2.0 | 8.0 | 0.00 | 0.00 | 0.00 | 49 | 1015.1 |
| 20260505082023 | 45 | 304 | 3.0 | 8.0 | 0.00 | 0.00 | 0.00 | 49 | 1015.0 |
| 20260505081543 | 44 | 327 | 2.0 | 6.0 | 0.00 | 0.00 | 0.00 | 50 | 1015.0 |
| 20260505081022 | 44 | 357 | 2.0 | 6.0 | 0.00 | 0.00 | 0.00 | 51 | 1015.1 |
| 20260505080526 | 45 | 311 | 1.0 | 10.0 | 0.00 | 0.00 | 0.00 | 52 | 1015.1 |
| 20260505080045 | 45 | 352 | 2.0 | 10.0 | 0.00 | 0.00 | 0.00 | 50 | 1015.2 |
| 20260505075522 | 45 | 49 | 3.0 | 10.0 | 0.00 | 0.00 | 0.00 | 50 | 1015.2 |
| 20260505075024 | 44 | 0 | 1.0 | 5.0 | 0.00 | 0.00 | 0.00 | 51 | 1015.2 |
| 20260505074539 | 45 | 351 | 2.0 | 5.0 | 0.00 | 0.00 | 0.00 | 51 | 1015.2 |
| 20260505074025 | 45 | 342 | 3.0 | 5.0 | 0.00 | 0.00 | 0.00 | 51 | 1015.2 |
| 20260505073524 | 45 | 4 | 1.0 | 5.0 | 0.00 | 0.00 | 0.00 | 51 | 1015.1 |
| 20260505073045 | 45 | 1 | 2.0 | 6.0 | 0.00 | 0.00 | 0.00 | 50 | 1015.2 |
| 20260505072526 | 45 | 28 | 3.0 | 6.0 | 0.00 | 0.00 | 0.00 | 49 | 1015.2 |
| 20260505072027 | 45 | 341 | 2.0 | 7.0 | 0.00 | 0.00 | 0.00 | 50 | 1015.0 |
| 20260505071543 | 45 | 352 | 4.0 | 7.0 | 0.00 | 0.00 | 0.00 | 51 | 1015.2 |
| 20260505071026 | 45 | 32 | 4.0 | 7.0 | 0.00 | 0.00 | 0.00 | 53 | 1015.2 |
| 20260505070523 | 45 | 13 | 2.0 | 7.0 | 0.00 | 0.00 | 0.00 | 56 | 1015.1 |